TimeMST,TemperatureF,Dew PointF,Humidity,Sea Level PressureIn,VisibilityMPH,Wind Direction,Wind SpeedMPH,Gust SpeedMPH,PrecipitationIn,Events,Conditions,WindDirDegrees,DateUTC
12:53 AM,36.0,28.9,76,30.05,10.0,SSE,10.4,-,N/A,,Overcast,160,2013-12-01 07:53:00
1:53 AM,36.0,28.9,76,30.05,10.0,SSE,5.8,-,N/A,,Overcast,160,2013-12-01 08:53:00
2:53 AM,36.0,28.9,76,30.04,10.0,SW,5.8,-,N/A,,Overcast,220,2013-12-01 09:53:00
3:53 AM,37.0,30.0,76,30.03,10.0,WSW,6.9,-,N/A,,Overcast,240,2013-12-01 10:53:00
4:53 AM,37.0,30.0,76,30.03,10.0,West,9.2,-,0.00,,Overcast,260,2013-12-01 11:53:00
5:53 AM,37.9,30.0,73,30.02,10.0,WNW,5.8,-,N/A,,Scattered Clouds,290,2013-12-01 12:53:00
6:53 AM,36.0,30.0,79,30.01,10.0,WSW,5.8,-,N/A,,Partly Cloudy,250,2013-12-01 13:53:00
7:53 AM,35.1,28.9,78,30.00,10.0,WSW,3.5,-,N/A,,Clear,240,2013-12-01 14:53:00
8:53 AM,36.0,30.9,82,29.99,10.0,SSW,4.6,-,N/A,,Clear,200,2013-12-01 15:53:00
9:53 AM,37.0,30.0,76,29.96,10.0,SE,6.9,-,N/A,,Clear,140,2013-12-01 16:53:00
10:53 AM,41.0,30.9,67,29.92,10.0,SSE,9.2,-,N/A,,Partly Cloudy,150,2013-12-01 17:53:00
11:53 AM,46.0,32.0,58,29.86,10.0,SSE,6.9,-,N/A,,Mostly Cloudy,160,2013-12-01 18:53:00
12:53 PM,48.0,32.0,54,29.81,10.0,SSE,6.9,-,N/A,,Mostly Cloudy,160,2013-12-01 19:53:00
1:53 PM,46.9,32.0,56,29.78,10.0,South,5.8,-,N/A,,Overcast,180,2013-12-01 20:53:00
2:53 PM,45.0,30.9,58,29.75,10.0,South,4.6,-,N/A,,Overcast,170,2013-12-01 21:53:00
3:53 PM,43.0,30.9,62,29.73,10.0,SSE,6.9,-,N/A,,Overcast,150,2013-12-01 22:53:00
4:53 PM,43.0,30.9,62,29.72,10.0,Calm,Calm,-,N/A,,Overcast,0,2013-12-01 23:53:00
5:53 PM,41.0,35.1,79,29.72,9.0,West,6.9,-,0.00,Rain,Light Rain,260,2013-12-02 00:53:00
6:53 PM,41.0,36.0,82,29.69,10.0,WSW,4.6,-,0.00,,Overcast,250,2013-12-02 01:53:00
7:53 PM,39.9,36.0,86,29.67,10.0,SSE,9.2,-,0.00,,Overcast,160,2013-12-02 02:53:00
8:53 PM,37.9,36.0,93,29.66,10.0,South,9.2,-,0.00,,Mostly Cloudy,170,2013-12-02 03:53:00
9:53 PM,37.0,35.1,93,29.65,10.0,SSW,9.2,-,N/A,,Scattered Clouds,210,2013-12-02 04:53:00
10:53 PM,39.0,35.1,86,29.63,10.0,WSW,6.9,-,N/A,,Clear,240,2013-12-02 05:53:00
11:53 PM,37.0,34.0,89,29.60,10.0,WSW,9.2,-,N/A,,Clear,240,2013-12-02 06:53:00